GEFSSE_con_probscp_192.txt.gz
Probability
0 0 1 2 2 1 0 0 0 0 0 0 0 0 0 0 0 0 0 0 0 0 0 0 0 0 0 0 0 0 0 0 0 0 0 0 0 0 0 0 0 0 0
0 0 1 2 1 0 0 0 0 0 0 0 0 0 0 0 0 0 0 0 0 0 0 0 0 0 0 0 0 0 0 0 0 0 0 0 0 0 0 0 0 0 0
0 0 1 2 1 0 0 0 0 0 0 0 0 0 0 0 0 0 0 0 0 0 0 0 0 0 0 0 0 0 0 0 0 0 0 0 0 0 0 0 0 0 0
0 0 1 2 2 1 0 0 0 0 0 0 0 0 0 0 0 0 0 0 0 0 0 0 0 0 0 0 0 0 0 0 0 0 0 0 0 0 0 0 0 0 0
0 1 2 3 2 1 0 0 0 0 0 0 0 0 0 0 0 0 0 0 0 0 0 0 0 0 0 0 0 0 0 0 0 0 0 0 0 0 0 0 0 0 0
0 1 2 3 3 1 0 0 0 0 0 0 0 0 0 0 0 0 0 0 0 0 0 0 0 0 0 0 0 0 0 0 0 0 0 0 0 0 0 0 0 0 0
1 1 3 3 3 2 1 0 0 0 0 0 0 0 0 0 0 0 0 0 0 0 0 0 0 0 0 0 0 0 0 0 0 0 0 0 0 0 0 0 0 0 0
2 3 3 3 3 2 1 0 0 0 0 0 0 0 0 0 0 0 0 0 0 0 0 0 0 0 0 0 0 0 0 0 0 0 0 0 0 0 0 0 0 0 0
3 3 3 2 2 2 1 0 0 0 0 0 0 0 0 0 0 0 0 0 0 0 0 0 0 0 0 0 0 0 0 0 0 0 0 0 0 0 0 0 0 0 0
3 3 2 1 1 1 0 0 0 0 0 0 0 0 0 0 0 0 0 0 0 0 0 0 0 0 0 0 0 0 0 0 0 0 0 0 0 0 0 0 0 0 0
3 3 3 2 1 0 0 0 0 0 0 0 0 0 0 0 0 0 0 0 0 0 0 0 0 1 1 0 0 0 0 0 0 0 0 0 0 0 0 0 0 0 0
4 4 3 3 2 1 0 0 0 0 0 0 0 0 0 0 0 0 0 0 0 0 0 0 0 1 1 0 0 0 0 0 0 0 0 0 0 0 0 0 0 0 0
6 5 4 4 3 2 1 1 0 0 0 0 0 0 0 0 0 0 0 0 0 0 0 0 0 1 1 0 0 0 0 0 0 0 0 0 0 0 0 0 0 0 0
9 8 6 5 4 3 2 1 0 0 0 0 0 0 0 0 0 0 0 0 0 0 0 0 0 0 0 0 0 0 0 0 0 0 0 0 0 0 0 0 0 0 0
13 11 9 7 5 4 4 3 2 1 0 0 0 0 0 0 0 0 0 0 0 0 0 0 0 0 0 0 0 0 0 0 0 0 0 0 0 0 0 0 0 0 0
19 17 12 9 7 6 5 5 4 3 2 2 2 1 0 0 0 0 0 0 0 0 0 0 0 0 0 0 0 0 0 0 0 0 0 0 0 0 0 0 0 0 0
24 22 16 10 8 7 6 6 6 4 4 5 4 2 1 0 0 0 0 0 0 0 0 0 0 0 0 0 0 0 0 0 0 0 0 0 0 0 0 1 2 2 2
28 26 20 12 9 8 7 6 6 6 6 6 6 3 1 0 0 0 0 0 0 0 0 0 0 0 0 0 0 0 0 0 0 0 0 0 0 0 1 2 5 6 6
29 29 24 18 13 10 8 7 6 6 6 6 5 3 1 0 0 0 0 0 0 0 0 0 0 0 0 0 0 0 0 0 0 0 0 0 0 0 1 3 5 7 8
31 32 30 25 19 15 12 10 7 5 4 3 3 1 0 0 0 0 0 0 0 0 0 0 0 0 0 0 0 0 0 0 0 0 0 0 0 0 2 3 3 5 7
36 37 36 30 24 18 14 11 7 3 2 1 1 0 0 0 0 0 1 1 1 1 0 0 0 0 0 0 0 0 0 0 0 0 0 1 0 0 1 2 2 2 4
41 40 37 31 25 19 14 9 5 2 1 0 0 0 0 0 0 1 3 3 3 2 1 0 0 0 0 0 0 0 0 0 0 0 0 0 0 0 0 1 1 1 1
44 42 37 31 24 18 14 9 5 3 1 0 0 0 1 1 1 4 6 5 4 3 2 0 0 0 0 0 0 0 0 0 0 0 0 0 0 0 0 0 0 0 0
46 43 37 29 21 16 15 12 9 5 2 1 1 1 2 2 4 7 8 7 6 4 2 1 1 2 1 1 1 0 0 0 0 0 0 0 0 0 0 0 0 1 1
47 44 38 29 20 16 16 15 11 6 3 1 2 3 3 5 8 10 10 9 8 6 4 3 3 4 4 4 3 1 0 0 0 0 0 0 0 0 0 0 1 2 2
48 46 41 30 20 16 17 15 11 7 4 2 3 4 4 6 10 12 11 10 9 7 6 5 5 6 7 7 4 1 0 0 0 0 0 0 0 0 0 0 1 2 3

GEFSSE_con_probscp_198.txt.gz
Probability
0 1 2 3 2 1 0 0 0 0 0 0 0 0 0 0 0 1 1 1 0 0 1 2 2 2 2 2 2 1 2 2 2 1 0 0 0 0 0 0 0 0 0
0 1 2 3 2 1 0 0 0 0 0 0 0 0 0 0 0 1 2 2 1 0 1 1 1 1 1 1 1 1 1 1 1 0 0 0 0 0 0 0 0 0 0
0 0 1 3 3 1 0 0 0 0 0 0 0 0 0 0 0 1 3 2 1 0 1 0 0 0 0 0 0 0 0 0 0 0 0 0 0 0 0 0 0 0 0
0 0 1 3 3 2 1 0 0 0 0 0 0 0 0 0 0 1 2 2 1 0 0 0 0 0 0 0 0 0 0 0 0 0 0 0 0 0 0 0 0 0 0
1 0 1 4 5 3 2 1 0 0 0 0 0 0 0 0 0 0 1 1 0 0 0 0 0 0 0 0 0 0 0 0 0 0 0 0 0 0 0 0 0 0 0
2 1 1 4 5 4 2 1 0 0 0 0 0 0 0 0 0 0 0 0 0 0 0 0 0 0 0 0 0 0 0 0 0 0 0 0 0 0 0 0 0 0 0
2 1 1 3 4 3 2 1 0 0 0 0 0 0 0 0 0 0 0 0 0 0 0 0 0 0 0 0 0 0 0 0 0 0 0 0 0 0 0 0 0 0 0
2 1 1 2 3 3 2 1 1 0 0 0 0 0 0 0 0 0 0 0 0 0 0 0 0 0 0 0 0 0 0 0 0 0 0 0 0 0 0 0 0 0 0
1 0 0 1 2 3 3 2 2 1 0 0 0 0 0 0 0 0 0 0 0 0 0 0 0 0 0 1 1 1 0 0 0 0 0 0 0 0 0 0 0 0 0
0 0 0 0 1 1 2 2 2 1 0 0 0 0 0 0 0 0 0 0 0 0 0 0 0 0 0 1 1 1 0 0 0 0 0 0 0 0 0 0 0 0 0
1 0 0 0 0 0 1 1 1 1 0 0 0 1 0 0 0 0 0 0 0 0 0 0 0 0 0 0 0 0 0 0 0 0 0 0 0 0 0 0 0 0 0
2 1 0 0 0 0 0 0 0 0 0 0 0 0 0 0 0 0 0 0 0 0 0 0 0 0 0 0 0 0 0 0 0 0 0 0 0 0 0 0 0 0 0
5 3 1 1 0 0 0 0 0 0 0 0 0 0 0 0 0 0 0 0 0 0 0 0 0 0 0 0 0 0 0 0 0 0 0 0 0 0 0 0 0 0 0
7 6 4 3 1 1 0 0 0 0 0 0 0 0 0 0 0 0 0 0 0 0 0 0 0 0 0 0 0 0 0 0 0 0 0 0 0 0 0 0 0 0 0
7 7 6 5 3 2 1 0 0 0 1 1 1 0 0 0 0 0 0 0 0 0 0 0 0 0 0 0 0 0 0 0 0 0 0 0 0 0 0 0 0 0 0
7 7 7 6 4 3 1 0 1 1 2 3 2 1 0 0 0 0 0 0 0 0 0 0 0 0 0 0 0 0 0 0 0 0 0 0 0 0 0 0 0 0 0
7 6 6 6 5 4 3 2 2 3 4 5 4 2 1 0 0 0 0 0 0 0 0 0 0 0 0 0 0 0 0 0 0 0 0 0 0 0 1 1 1 1 1
7 5 5 6 6 5 5 3 3 4 5 5 3 2 1 0 0 0 0 0 0 0 0 0 0 0 0 0 0 0 0 0 0 0 0 0 0 0 1 2 2 2 2
7 6 5 5 4 5 5 4 3 3 3 3 1 1 0 0 0 0 0 0 0 0 0 0 0 0 0 0 0 0 0 0 0 0 0 0 0 0 1 1 1 1 1
10 10 8 5 4 4 4 3 1 1 1 1 0 0 0 0 0 0 0 0 0 0 1 1 1 0 0 0 0 0 0 0 0 0 0 0 0 0 0 0 0 0 0
13 12 10 7 5 4 4 2 1 0 0 0 0 0 0 0 0 0 0 0 0 0 1 1 1 0 0 0 0 0 0 0 0 0 0 0 0 0 0 0 0 0 0
14 13 11 8 6 5 4 3 2 1 0 0 1 1 1 0 0 0 0 0 0 0 1 1 0 0 0 0 0 0 0 0 0 0 0 0 0 0 0 0 0 0 0
15 14 12 9 6 4 4 4 3 2 1 1 1 2 1 0 0 0 0 0 0 1 1 1 1 1 1 0 0 0 0 0 0 0 0 0 0 0 0 0 0 0 0
16 15 14 10 6 4 4 4 4 3 2 1 1 1 0 0 0 0 1 1 1 2 3 3 2 2 2 1 1 1 0 0 0 0 0 0 0 0 0 0 0 0 0
16 15 14 11 8 6 4 3 3 4 3 1 0 0 0 0 0 0 1 2 2 3 4 4 4 4 4 3 2 2 1 1 0 0 0 0 0 0 0 0 0 0 0
15 14 13 11 9 7 5 3 4 4 3 1 0 0 0 0 0 0 1 2 3 4 4 4 4 4 4 4 3 3 2 2 1 0 0 0 0 0 0 0 0 0 0

GEFSSE_con_probscp_204.txt.gz
Probability
0 1 3 1 0 0 0 0 0 0 0 0 0 0 1 1 1 0 0 0 0 0 0 0 1 2 3 2 1 0 1 2 2 1 0 0 1 3 2 1 0 0 0
0 1 2 1 0 0 0 0 0 0 0 0 0 0 1 2 2 1 0 0 0 0 0 0 1 1 2 1 0 0 0 1 1 0 0 0 1 2 2 1 0 0 0
0 1 2 2 1 0 0 0 0 0 0 0 0 0 1 2 2 1 0 0 0 0 0 0 0 0 0 0 0 0 0 0 0 0 0 0 1 1 1 0 0 0 0
0 0 2 3 3 1 0 0 0 0 0 0 0 0 0 1 1 0 0 0 0 0 0 0 0 0 0 0 0 0 0 0 0 0 0 0 0 0 0 0 0 0 0
0 0 1 2 2 1 0 0 0 0 0 0 0 0 0 0 0 0 0 0 0 0 0 0 0 0 0 0 0 0 0 0 0 0 0 0 0 0 0 0 0 0 0
0 0 0 1 1 1 0 0 0 0 0 0 0 0 0 0 0 0 0 0 0 0 0 0 0 0 0 0 0 0 0 0 0 0 0 0 0 0 0 0 0 0 0
0 0 0 0 0 0 0 0 0 0 0 0 0 0 0 0 0 0 0 0 0 0 0 0 0 0 0 0 0 0 0 0 0 0 0 0 0 0 0 0 0 0 0
0 0 0 0 0 0 0 0 0 0 0 0 0 0 0 0 0 0 0 0 0 0 0 0 0 0 0 0 0 0 0 0 0 0 0 0 0 0 0 0 0 0 0
0 0 0 0 0 0 0 0 0 0 0 0 0 0 0 0 0 0 0 0 0 0 0 0 0 0 0 0 0 0 0 0 0 0 0 0 0 0 0 0 0 0 0
0 0 0 0 0 0 0 0 0 0 0 0 0 0 0 0 0 0 0 0 0 0 0 0 0 0 0 0 0 0 0 0 0 0 0 0 0 0 0 0 0 0 0
1 1 1 0 0 0 0 0 0 0 0 0 0 0 0 0 0 0 0 0 0 0 0 0 0 0 0 0 0 0 0 0 0 0 0 0 0 0 0 0 0 0 0
2 2 2 1 0 0 0 0 0 1 1 0 0 0 0 0 0 0 0 0 0 0 0 0 0 0 0 0 0 0 0 0 0 0 0 0 0 0 0 0 0 0 0
4 3 3 1 0 0 0 0 1 2 1 0 0 0 0 0 0 0 0 0 0 0 0 0 0 0 0 0 0 0 0 0 0 0 0 0 0 0 0 0 0 0 0
5 4 3 2 2 2 1 1 1 2 1 1 1 1 0 0 0 0 0 0 0 0 0 0 0 0 0 0 0 0 0 0 0 0 0 0 0 0 0 0 0 0 0
7 6 4 4 4 4 3 2 2 2 1 1 2 2 1 0 0 0 0 0 0 0 0 0 0 0 0 0 0 0 0 0 0 0 0 0 0 1 1 1 1 1 0
7 7 6 6 6 6 4 3 3 3 3 3 3 3 2 1 0 0 0 0 0 0 0 0 0 0 0 0 0 0 0 0 0 0 0 0 1 2 2 2 2 1 1
6 6 7 7 7 6 6 5 4 4 4 3 3 3 3 2 1 0 0 0 0 0 0 0 0 0 0 0 0 0 0 0 0 0 0 0 1 2 2 2 2 1 0
4 5 6 7 7 7 7 7 6 5 4 3 3 3 3 2 1 0 0 0 0 0 0 0 0 0 0 0 0 0 0 0 0 0 0 0 0 1 1 1 1 1 1
3 3 4 5 7 7 8 8 6 5 4 3 3 3 3 2 1 0 0 0 0 0 0 0 0 0 0 0 0 0 0 0 0 0 0 0 0 0 0 1 2 2 2
6 5 4 5 7 8 7 7 6 5 5 4 2 1 1 2 2 1 0 0 1 1 1 0 0 0 0 0 0 0 0 0 0 0 0 0 0 0 0 1 2 2 2
12 10 8 9 9 9 8 8 8 7 5 3 2 1 0 1 2 1 0 1 2 2 1 0 0 0 0 0 0 0 0 0 0 0 0 0 0 0 0 0 1 2 3
16 15 14 14 14 13 11 11 10 7 4 2 2 2 2 1 1 1 0 1 2 1 1 1 1 1 1 1 1 1 1 1 0 0 0 1 1 1 1 1 2 3 4
18 17 17 18 16 15 14 12 10 8 5 3 4 4 4 3 2 1 1 1 2 1 2 4 5 4 3 3 4 4 3 2 1 0 0 1 2 2 2 3 2 3 4
18 17 18 18 15 14 14 13 11 9 7 6 6 6 6 5 3 2 2 3 4 4 5 8 9 8 6 6 7 8 7 5 4 2 1 2 3 3 3 3 3 3 4
17 16 17 18 16 14 14 15 13 10 8 8 7 6 5 5 4 4 5 6 7 7 9 9 9 9 9 9 11 12 11 9 8 6 3 3 3 4 4 3 3 4 4
16 15 16 18 18 15 15 16 15 11 8 9 8 6 5 5 4 6 7 8 9 9 10 9 8 9 10 12 14 14 13 12 11 8 4 3 4 4 4 4 4 3 4

GEFSSE_con_probscp_210.txt.gz
Probability
0 0 1 1 0 0 0 0 0 0 0 0 0 0 0 1 1 0 1 2 3 3 3 3 3 3 3 4 5 6 6 6 5 4 3 3 3 2 2 1 0 0 0
0 1 2 2 1 0 0 0 0 0 0 0 0 0 0 1 2 1 0 1 3 3 3 3 3 3 2 2 3 4 5 4 4 3 3 3 2 1 1 0 0 0 0
1 1 2 2 1 0 0 0 0 0 0 0 0 0 0 1 2 1 1 1 2 2 2 2 2 2 1 0 1 1 2 3 2 2 2 1 1 0 0 0 0 0 0
5 3 2 2 1 0 0 0 0 0 0 0 0 0 0 1 2 3 2 2 2 1 1 1 1 1 0 0 0 0 1 1 1 1 1 0 0 0 0 0 0 0 0
6 5 3 2 1 1 1 0 0 0 0 0 0 0 0 2 3 3 3 3 2 1 0 0 0 0 0 0 0 0 0 0 0 0 0 0 0 0 0 0 0 0 0
5 4 3 2 2 1 0 0 0 0 0 0 0 0 0 1 2 3 3 3 2 1 0 0 0 0 0 0 0 0 0 0 0 0 0 0 0 0 0 0 0 0 0
5 3 2 2 2 1 0 0 0 0 0 0 0 0 0 0 1 1 2 2 1 1 0 0 0 0 0 0 0 0 0 0 0 0 0 0 0 0 0 0 0 0 0
4 3 2 2 1 0 0 0 0 0 0 0 0 0 0 0 0 0 1 1 0 0 0 0 0 0 0 0 0 0 0 0 0 0 0 0 0 0 0 0 0 0 0
2 3 3 2 1 1 0 0 0 0 0 0 0 0 0 0 0 0 0 0 0 0 0 0 0 0 0 0 0 0 1 1 0 0 0 0 0 0 0 0 0 0 0
2 3 3 3 3 2 1 1 1 1 1 0 0 0 0 0 0 0 0 0 0 0 0 0 0 0 0 0 0 1 2 1 0 0 0 0 0 0 0 0 0 0 0
3 3 3 3 4 3 3 3 2 2 2 1 0 0 0 0 0 0 0 0 0 0 0 0 0 0 0 0 1 2 3 2 1 0 0 0 0 0 0 0 0 0 0
4 3 3 3 3 2 3 3 2 2 3 2 1 1 0 0 0 0 0 0 0 0 0 0 0 0 0 1 2 3 3 2 1 0 0 0 0 0 0 0 0 0 0
5 3 2 3 2 1 2 2 1 2 3 3 3 2 1 0 0 0 0 0 0 0 0 0 0 0 0 1 2 2 2 1 0 0 0 0 0 0 0 0 0 0 0
7 4 3 3 3 2 2 2 1 2 3 3 3 3 1 0 0 0 0 0 0 0 1 0 0 0 0 0 1 1 1 0 0 0 0 0 0 0 1 1 1 0 0
9 7 6 5 6 5 5 5 3 1 2 3 3 3 2 1 0 0 0 0 0 0 1 1 0 0 0 0 0 0 0 0 0 0 0 0 1 2 3 3 2 1 1
12 11 10 9 9 8 7 7 5 2 1 2 3 3 3 2 1 0 0 0 0 0 0 1 1 1 0 0 0 0 0 1 2 1 1 1 2 4 5 4 3 3 2
14 14 13 12 12 10 9 7 5 2 1 2 3 4 3 2 1 0 0 0 0 0 0 1 1 1 0 0 0 0 1 3 4 3 3 2 2 3 4 4 4 3 3
16 16 14 13 14 13 11 9 6 3 2 3 5 5 4 2 1 0 0 0 0 0 0 0 1 1 1 0 0 0 1 3 4 4 4 3 2 2 3 4 4 4 3
20 21 19 16 16 17 16 13 9 5 5 6 7 8 6 3 2 1 0 0 0 0 0 1 1 1 2 1 1 1 1 2 2 3 3 3 3 3 3 4 4 3 3
30 31 27 23 21 21 19 16 11 7 7 8 9 9 8 6 4 3 2 2 2 2 2 3 3 3 4 3 1 0 0 0 1 2 3 3 3 2 3 5 6 5 4
40 39 35 30 28 25 21 17 13 10 10 10 9 9 10 8 7 5 4 4 5 5 5 6 5 5 5 4 2 1 1 0 1 2 3 3 2 2 4 8 12 11 9
45 43 38 34 32 29 23 19 15 12 11 11 10 11 11 11 9 6 6 6 7 7 8 9 8 7 6 4 3 3 2 1 1 1 3 3 3 4 6 10 15 18 16
49 45 40 39 38 33 26 22 18 14 12 11 13 15 16 15 12 9 7 7 7 7 8 10 10 9 7 5 4 4 4 3 2 2 2 4 7 10 10 9 13 19 22
54 52 51 52 48 40 31 27 22 17 12 12 14 17 19 20 17 13 10 9 8 7 8 10 11 11 8 6 5 6 6 6 5 4 3 6 11 15 13 9 10 17 23
58 59 62 61 56 46 37 30 25 19 14 14 14 16 19 22 20 16 14 14 12 9 9 11 13 12 10 8 7 7 7 8 7 6 5 5 8 13 14 12 11 14 18
59 63 66 64 56 47 38 31 26 20 16 15 14 15 19 21 19 17 17 17 14 11 9 12 15 13 11 9 8 7 7 7 7 6 5 4 5 9 13 14 13 12 14

GEFSSE_con_probscp_216.txt.gz
Probability
0 0 0 0 0 0 1 2 1 0 0 0 0 1 2 3 3 3 3 3 3 3 3 3 3 3 3 2 1 0 0 1 3 3 3 3 2 1 0 0 0 0 0
0 0 0 0 0 0 1 2 1 0 0 0 0 1 2 3 3 3 3 3 3 3 3 2 2 2 2 2 1 0 0 2 3 3 3 2 1 0 0 0 0 0 0
0 0 0 0 0 0 1 1 1 0 0 0 0 0 1 2 3 3 3 3 3 3 1 1 1 1 1 1 1 0 0 1 2 2 2 1 0 0 0 0 0 0 0
0 0 0 0 0 0 0 0 0 0 0 1 1 1 1 2 3 3 3 3 3 3 1 0 0 0 0 0 0 0 0 0 1 1 1 0 0 0 0 0 0 0 0
0 0 0 0 0 0 0 0 0 0 0 1 2 3 3 3 3 3 3 3 3 2 1 0 0 0 0 0 0 0 0 0 0 0 0 0 0 0 0 0 0 0 0
0 0 0 0 0 0 0 0 0 0 0 0 2 3 4 3 3 3 3 3 2 1 1 0 0 0 0 0 0 0 0 0 0 0 0 0 0 0 0 0 0 0 0
0 0 0 0 0 0 0 0 0 0 0 0 1 2 3 3 2 2 2 1 1 0 0 0 0 0 0 0 0 0 0 0 0 0 0 0 0 0 0 0 0 0 0
0 0 0 0 0 0 0 1 0 0 0 0 0 1 2 1 1 1 1 0 0 0 0 0 0 0 0 0 0 0 0 1 0 0 0 0 0 0 0 0 0 0 0
0 0 0 0 0 0 0 0 0 0 0 0 0 0 0 0 0 0 0 0 0 0 0 0 0 0 0 0 0 0 0 0 0 0 0 0 0 0 0 0 0 0 0
0 0 0 0 0 0 0 0 0 0 0 0 0 0 0 0 0 0 0 0 0 0 0 0 0 0 0 0 0 0 0 0 0 0 0 0 0 0 0 0 0 0 0
0 0 0 0 0 0 0 0 0 0 0 0 0 0 0 0 0 0 0 0 0 0 0 0 0 0 0 0 0 0 0 0 0 0 0 0 0 0 0 0 0 0 0
0 0 0 0 0 0 0 0 0 0 0 0 0 0 0 0 0 0 0 0 0 0 0 0 0 0 0 0 0 0 0 0 0 0 0 0 0 0 0 0 0 0 0
2 1 0 0 0 1 1 1 0 0 0 0 0 0 0 0 0 0 0 0 0 0 0 0 0 0 0 0 0 0 0 0 0 0 0 0 0 1 1 0 0 0 0
6 3 1 1 1 2 2 1 0 0 0 0 0 0 0 0 0 0 0 0 0 0 0 0 0 0 0 0 0 0 0 0 0 0 0 0 1 2 2 1 1 1 1
5 3 2 3 4 4 2 1 0 0 0 0 0 0 0 0 0 0 0 0 0 0 0 0 0 0 0 0 0 0 0 0 0 0 0 1 2 3 3 3 2 2 2
4 4 4 5 7 5 3 1 0 0 0 0 0 0 0 0 0 0 0 0 0 0 0 0 0 0 0 0 0 0 0 0 0 0 0 1 2 3 3 3 3 3 3
8 7 6 6 7 6 4 2 1 1 1 0 0 0 0 0 0 0 0 0 0 0 0 0 0 0 0 0 0 0 0 0 0 0 0 0 1 2 3 3 3 3 3
11 9 7 6 6 6 4 3 2 2 2 1 0 0 0 0 0 0 0 0 0 0 0 0 0 0 0 0 0 0 0 0 0 0 0 0 0 1 2 3 3 3 3
9 9 8 7 6 6 4 3 3 3 2 1 1 1 0 0 0 0 0 0 0 0 0 0 0 0 0 0 0 0 0 0 0 0 0 0 0 0 1 1 2 3 3
9 10 10 8 7 6 6 5 4 3 2 1 1 2 2 1 0 0 0 0 0 0 0 0 0 0 0 0 0 0 0 0 0 0 0 0 0 0 0 0 1 1 2
12 12 12 10 8 7 7 6 5 4 1 0 1 2 3 2 1 0 0 0 0 0 0 0 0 0 0 0 0 0 0 0 0 0 0 0 0 0 0 0 0 0 1
17 15 13 11 9 8 7 6 5 4 1 0 0 1 2 2 1 0 0 0 0 0 0 0 0 0 0 0 0 0 0 0 0 0 0 0 0 0 1 1 1 1 0
21 18 15 12 9 7 6 5 4 3 1 0 0 0 1 1 0 0 0 1 1 1 0 0 0 0 0 0 0 0 0 0 0 0 0 0 0 0 1 1 2 2 2
21 21 18 13 9 8 7 5 4 2 1 0 0 0 0 0 0 0 1 2 2 2 1 1 1 1 1 1 0 0 0 0 0 0 0 0 0 0 0 1 1 2 3
22 23 21 17 13 10 8 5 4 3 2 1 1 1 0 0 0 0 1 2 3 3 3 3 3 3 3 3 1 0 0 0 0 0 0 0 0 0 0 0 0 1 2
24 25 24 20 16 12 9 5 4 3 3 4 4 2 1 0 0 0 1 2 3 3 3 4 5 5 5 4 2 1 0 0 0 0 0 0 0 0 0 0 0 0 1

GEFSSE_con_probscp_222.txt.gz
Probability
0 0 0 0 1 0 0 0 0 1 2 3 3 3 3 3 2 1 2 3 2 1 0 0 0 1 1 0 0 1 2 3 3 3 3 3 3 2 1 0 0 0 0
0 0 0 1 1 1 1 0 1 1 3 3 3 3 3 3 2 1 2 4 4 2 1 1 1 2 1 0 0 0 1 3 3 3 3 2 2 1 1 0 0 0 0
0 0 0 1 2 3 2 2 2 2 2 3 4 3 3 3 3 2 3 4 4 3 3 2 3 2 1 1 1 1 1 2 3 2 2 1 0 0 0 0 0 0 0
0 0 1 2 3 4 4 4 3 1 1 3 4 4 3 3 3 3 3 3 3 3 3 3 3 2 1 1 2 2 2 2 1 1 1 0 0 0 0 0 0 0 0
0 0 1 2 3 4 5 5 3 1 1 3 4 3 3 3 3 3 3 3 3 3 2 2 1 1 0 1 1 1 1 1 0 0 0 0 0 0 0 0 0 0 0
0 0 1 2 3 3 4 4 3 1 1 3 3 3 3 3 2 2 2 2 2 1 1 1 0 0 0 0 0 0 0 0 0 0 0 0 0 0 0 0 0 0 0
0 0 1 1 2 2 3 3 3 2 2 3 3 2 2 1 1 1 1 1 1 0 0 0 0 0 0 0 0 0 0 0 0 0 0 0 0 0 0 0 0 0 0
0 0 0 0 0 1 2 2 2 1 1 2 1 1 1 0 0 0 0 0 0 0 0 0 0 0 0 0 0 0 0 0 0 0 0 0 0 0 0 0 0 0 0
0 0 0 0 0 0 1 1 1 0 0 1 0 0 0 0 0 0 0 0 0 0 0 0 0 0 0 0 0 0 0 0 0 0 0 0 0 0 0 0 0 0 0
0 0 0 0 0 1 1 1 1 1 1 1 1 0 0 0 0 0 0 0 0 0 0 0 0 0 0 0 0 0 0 0 0 0 0 0 0 0 0 0 0 0 0
0 0 0 0 1 2 2 2 2 2 2 2 1 0 0 0 0 0 0 0 0 0 0 0 0 0 0 0 0 0 0 0 0 0 0 0 0 0 0 0 0 0 0
0 0 0 0 1 2 2 2 3 3 2 1 0 0 0 0 0 0 0 0 0 0 0 0 0 0 0 0 0 0 0 0 0 0 0 0 0 0 0 0 0 0 0
0 0 0 0 1 1 1 1 1 2 1 0 0 0 0 0 0 0 0 0 0 0 0 0 0 0 0 0 0 0 0 0 0 0 0 0 0 0 0 0 0 0 0
0 0 0 1 2 2 2 1 0 0 0 0 0 0 0 0 0 0 0 0 0 0 0 0 0 0 0 0 0 0 0 0 0 0 0 0 0 0 0 0 0 0 0
0 0 0 1 2 3 2 1 0 0 0 0 0 0 0 0 0 0 0 0 0 0 0 0 0 0 0 0 0 0 0 0 0 0 0 0 0 0 0 0 0 0 0
0 0 0 1 3 3 2 1 0 0 0 0 0 0 0 0 0 0 0 0 0 0 0 0 0 0 0 0 0 0 0 0 0 0 0 0 0 0 0 0 0 0 0
1 1 1 2 3 3 2 1 0 0 0 0 0 0 0 0 0 0 0 0 0 0 0 0 0 0 0 0 0 0 0 0 0 0 0 0 0 0 0 0 0 0 0
2 2 3 3 3 3 2 0 0 0 0 0 0 0 0 0 0 0 0 0 0 0 0 0 0 0 0 0 0 0 0 0 0 0 0 0 0 0 0 0 0 0 0
3 3 3 3 3 3 2 1 0 0 0 0 0 0 0 0 0 0 0 0 0 0 0 0 0 0 0 0 0 0 0 0 0 0 0 0 0 0 0 0 0 0 0
3 3 3 3 3 3 3 2 1 0 0 0 0 0 0 0 0 0 0 0 0 0 0 0 0 0 0 0 0 0 0 0 0 0 0 0 0 0 0 0 0 0 0
3 3 3 3 3 3 4 3 1 0 0 0 0 0 0 0 0 0 0 0 0 0 0 0 0 0 0 0 0 0 0 0 0 0 0 0 0 0 0 0 0 0 0
3 2 2 3 4 5 5 4 2 0 0 0 0 0 0 0 0 0 0 0 0 0 0 0 0 0 0 0 0 0 0 0 0 0 0 0 0 0 0 0 0 0 0
3 3 3 4 5 5 6 6 4 2 1 0 0 0 0 0 0 0 0 0 0 0 0 0 0 0 0 0 0 0 0 0 0 0 0 0 0 0 0 0 0 0 0
3 3 3 4 4 4 5 6 4 2 1 0 0 0 0 0 0 0 0 0 0 0 1 1 1 1 0 0 0 0 0 0 0 0 0 0 0 0 0 0 0 0 0
3 2 2 3 3 3 4 4 2 1 1 0 0 0 0 0 0 0 0 0 1 2 3 3 3 3 2 1 1 1 1 1 1 0 0 0 0 0 0 0 0 0 0
4 1 1 2 3 3 3 2 1 0 0 0 0 0 0 0 0 0 0 1 2 4 5 5 5 5 4 4 3 2 2 2 2 1 0 0 0 0 0 0 0 0 0

GEFSSE_con_probscp_228.txt.gz
Probability
0 1 2 3 3 3 2 1 1 2 2 3 5 5 4 3 1 0 1 1 1 0 0 0 0 0 0 1 2 1 0 1 2 3 3 2 1 1 1 0 0 0 0
0 1 3 4 3 3 2 2 2 3 2 3 4 4 4 3 2 0 0 0 0 0 0 0 0 0 0 2 2 1 0 0 1 3 3 2 1 0 0 0 0 0 0
0 1 3 4 4 4 3 2 2 3 3 2 2 3 3 3 1 0 0 0 0 0 0 0 0 0 0 1 2 2 1 1 1 2 3 2 1 0 0 0 0 0 0
0 0 2 5 5 5 5 3 2 2 2 1 1 2 3 2 1 0 0 0 0 0 0 0 0 0 0 1 3 3 2 1 1 2 2 1 1 0 0 0 0 0 0
0 1 3 5 5 5 5 4 3 3 2 1 2 3 2 1 0 0 0 0 0 0 0 0 0 1 1 2 3 3 3 1 0 1 1 1 1 1 0 0 0 0 0
0 1 2 4 3 4 4 3 3 3 3 3 3 4 4 2 1 0 0 0 0 0 0 0 0 0 1 2 3 3 2 1 0 0 0 1 1 1 0 0 0 0 0
0 0 1 1 1 2 2 2 2 3 3 3 4 5 4 4 3 2 1 1 1 1 1 0 0 0 0 1 2 2 2 1 0 0 0 0 0 0 0 0 0 0 0
0 0 0 1 1 1 1 1 1 1 2 2 3 3 3 3 3 3 2 2 2 2 1 0 0 0 0 0 1 1 1 0 0 0 0 0 0 0 0 0 0 0 0
0 0 0 1 1 0 0 0 0 0 1 1 1 2 1 1 1 2 2 1 1 1 1 0 0 0 0 0 0 0 0 0 0 0 0 0 0 0 0 0 0 0 0
0 0 0 1 1 0 0 1 0 0 0 0 0 0 0 0 0 1 1 0 0 0 0 0 0 0 0 0 0 0 0 0 0 0 0 0 0 0 0 0 0 0 0
0 0 0 0 0 0 0 0 0 0 0 0 0 0 0 0 0 0 0 0 0 0 0 0 0 0 0 0 0 0 0 0 0 0 0 0 0 0 0 0 0 0 0
0 0 0 0 0 0 0 0 0 0 0 0 0 0 0 0 0 0 0 0 0 0 0 0 0 0 0 0 0 0 0 0 0 0 0 0 0 0 0 0 0 0 0
0 0 0 0 1 1 0 0 0 0 0 0 0 0 0 0 0 0 0 0 0 0 0 0 0 0 0 0 0 0 0 0 0 0 0 0 0 0 0 0 0 0 0
0 0 0 1 2 2 1 1 0 0 0 0 0 0 0 0 0 0 0 0 0 0 0 0 0 0 0 0 0 0 0 0 0 0 0 0 0 0 0 0 0 0 0
0 0 0 1 2 3 3 2 1 0 0 0 0 0 0 0 0 0 0 0 0 0 0 0 0 0 0 0 0 0 0 0 0 0 0 0 0 0 0 0 0 0 0
0 0 0 1 3 3 3 2 1 0 0 0 0 0 0 0 0 0 0 0 0 0 0 0 0 0 0 0 0 0 0 0 0 0 0 0 0 0 0 0 0 0 0
1 0 1 2 3 3 4 3 1 0 0 0 0 0 0 0 0 0 0 0 0 0 0 0 0 0 0 0 0 0 0 0 0 0 0 0 0 0 0 0 0 0 0
2 2 2 3 4 4 5 4 2 0 0 0 0 0 0 0 0 0 0 0 0 0 0 0 0 0 0 0 0 0 0 0 0 0 0 0 0 0 0 0 2 2 2
5 4 4 4 5 6 6 6 3 1 0 0 0 0 0 0 0 0 0 0 0 0 0 0 0 0 0 0 0 0 0 0 1 1 0 0 0 0 0 1 3 4 3
8 8 8 7 7 8 8 6 4 2 1 0 0 0 0 0 0 0 0 0 0 0 0 0 0 0 0 1 0 0 0 0 1 1 0 0 0 0 1 2 2 3 5
11 12 12 10 10 9 8 6 5 3 2 1 1 0 0 0 0 0 0 0 0 0 0 1 1 0 0 0 0 0 0 0 1 1 1 1 1 1 2 3 3 4 5
12 14 14 12 10 8 7 6 6 5 3 2 1 1 1 1 0 0 0 0 0 1 1 2 2 1 1 0 0 0 0 0 0 0 1 2 3 3 3 3 3 4 4
12 12 12 11 10 8 7 6 6 5 3 1 1 1 2 1 1 1 1 1 1 2 3 4 4 4 3 1 1 1 1 1 1 1 1 2 3 3 2 1 1 2 2
8 9 10 10 10 9 8 7 5 4 2 0 1 2 3 2 2 2 2 3 3 4 5 5 5 7 6 4 4 4 4 4 3 2 1 2 3 3 2 0 0 0 1
6 7 9 10 11 12 10 9 7 4 2 2 2 2 2 2 1 1 3 4 5 6 7 7 7 8 7 6 7 7 6 6 6 4 3 3 3 3 3 2 1 0 0
6 7 9 10 11 13 12 11 9 5 3 3 3 2 1 1 0 1 2 4 6 7 8 9 9 9 8 8 9 8 7 7 7 6 4 3 3 4 4 4 3 1 0

GEFSSE_con_probscp_234.txt.gz
Probability
1 3 4 4 4 2 2 2 3 2 2 3 2 0 0 0 0 0 0 1 0 0 0 1 2 3 3 4 5 6 5 5 4 3 1 0 0 0 0 0 0 0 0
1 2 4 5 3 2 1 2 3 2 2 3 3 1 1 0 0 0 1 1 0 0 0 0 1 2 3 4 5 4 4 4 3 2 1 0 0 0 0 0 0 0 0
0 1 4 4 2 1 1 2 3 1 1 3 3 2 2 1 0 1 2 1 0 0 0 0 1 1 1 2 3 3 2 2 1 1 1 0 0 0 0 0 0 0 0
1 1 3 3 1 0 1 2 2 1 1 1 2 2 2 1 1 2 2 1 0 0 0 0 1 1 1 1 1 1 1 1 0 0 0 0 0 0 0 0 0 0 0
1 1 2 3 2 1 1 2 3 2 1 0 0 1 2 2 2 2 1 0 0 0 0 0 1 2 2 2 1 1 1 1 1 1 0 0 0 0 0 0 0 0 0
1 1 1 2 3 3 2 3 3 2 1 0 0 1 3 3 2 1 0 0 0 0 0 0 0 1 3 3 3 2 2 2 2 1 0 0 0 0 0 0 0 0 0
2 1 0 1 2 2 3 3 3 1 1 1 1 3 3 3 3 2 1 0 0 0 0 1 1 1 3 3 3 3 3 3 1 0 0 0 0 0 0 0 0 0 0
2 1 0 0 1 1 1 3 2 1 1 2 3 4 3 2 2 2 1 0 0 0 0 1 2 3 3 3 3 3 3 3 1 0 0 0 0 0 0 0 0 0 0
1 0 1 1 1 1 1 2 3 1 1 2 3 3 2 1 1 1 0 0 0 0 0 1 3 3 3 3 3 3 3 3 1 0 0 0 0 0 0 0 0 0 0
0 0 2 2 2 2 2 3 3 2 2 2 2 2 2 1 0 0 0 0 0 0 0 1 2 2 2 2 2 2 2 1 0 0 0 0 0 0 0 0 0 0 0
0 0 1 1 1 2 3 3 3 3 3 3 2 1 1 1 0 0 0 0 0 0 0 0 1 1 1 1 1 1 1 0 0 0 0 0 0 0 0 0 0 0 0
0 0 1 1 1 1 2 3 3 3 3 3 2 1 1 0 0 0 0 0 1 1 0 0 0 0 0 0 0 0 0 0 0 0 0 0 0 0 0 0 0 0 0
1 1 2 2 2 2 2 3 3 4 4 4 3 2 0 0 0 0 0 1 2 1 0 0 1 0 0 0 0 0 0 0 0 0 1 1 1 0 0 0 0 0 0
2 1 2 2 4 4 4 4 4 4 5 6 4 2 1 0 0 1 1 1 1 1 0 0 0 0 0 0 0 0 0 0 0 0 1 3 3 2 2 2 1 0 0
3 2 1 3 5 7 7 7 4 3 5 6 3 1 1 1 0 1 1 1 0 0 0 0 0 1 1 1 0 0 0 0 0 0 2 5 5 5 5 5 3 1 0
6 4 3 5 7 7 7 6 4 3 4 4 3 2 1 1 0 0 0 0 0 0 0 0 1 2 2 1 0 0 0 0 0 0 2 4 6 6 6 6 6 4 2
9 6 5 6 8 8 7 5 4 4 4 4 4 4 3 2 1 0 0 0 0 0 0 0 1 1 1 1 0 0 0 1 1 1 2 3 4 5 6 6 7 6 5
11 9 7 6 9 10 9 7 5 5 4 4 5 6 6 4 2 1 0 0 0 0 0 0 0 0 0 0 0 0 0 1 2 2 3 3 4 4 4 5 6 6 5
14 13 10 8 10 11 10 8 7 6 5 4 4 5 5 4 2 1 0 0 0 0 0 0 0 0 0 0 0 0 0 1 3 3 4 4 4 4 3 4 5 5 5
20 18 15 13 12 12 9 7 7 7 7 6 5 5 4 3 2 1 0 0 1 1 0 0 0 0 0 0 0 0 0 1 2 3 3 4 4 4 3 5 7 6 5
29 26 21 19 17 13 9 7 7 7 7 5 5 6 5 3 2 3 2 2 2 2 2 2 2 1 1 0 0 0 0 0 1 2 2 3 4 3 3 6 11 12 10
33 31 28 25 22 16 11 8 8 7 5 3 4 6 5 3 3 4 5 3 3 4 4 6 6 4 2 2 2 1 1 0 1 1 1 1 3 4 4 6 12 16 16
31 31 32 33 28 21 15 11 10 8 5 4 5 6 5 4 4 5 5 5 4 4 5 7 8 6 4 4 4 4 3 3 3 2 1 1 3 5 4 5 8 11 13
28 30 35 37 34 27 21 17 13 11 9 8 8 7 6 4 4 5 6 7 7 7 7 8 8 8 6 4 5 6 6 6 6 4 2 2 3 5 5 4 4 5 6
24 28 34 38 37 32 26 21 18 14 13 13 11 7 4 3 3 5 7 10 11 11 11 10 10 9 8 5 5 5 6 7 8 5 2 1 2 3 5 5 4 3 3
21 25 33 37 37 33 27 23 21 18 17 16 12 7 3 2 3 5 7 12 14 13 13 12 11 10 9 7 5 5 6 7 8 6 2 0 1 2 3 4 4 2 2

GEFSSE_con_probscp_240.txt.gz
Probability
1 1 2 3 3 3 4 5 7 6 2 0 1 2 3 3 1 0 1 2 2 2 1 1 2 3 4 5 6 6 6 5 5 4 2 1 0 0 0 0 0 0 0
1 1 2 3 3 3 3 4 6 5 3 1 1 1 3 3 2 2 2 4 3 1 1 2 3 3 4 5 5 6 6 5 4 3 2 1 0 0 0 0 0 0 0
0 1 2 3 3 3 3 4 6 5 4 3 2 2 3 4 4 5 5 5 4 2 1 3 5 4 3 4 4 5 4 4 3 3 2 1 0 0 0 0 0 0 0
0 1 2 3 3 3 3 4 5 5 5 4 3 4 5 4 5 6 6 6 4 3 3 3 3 3 2 2 3 3 3 3 3 2 1 0 0 0 0 0 0 0 0
0 1 2 3 3 3 3 3 3 4 5 5 4 4 5 5 6 6 6 6 6 5 3 2 1 1 1 1 2 3 3 3 2 1 0 0 0 0 0 0 0 0 0
0 0 1 2 3 3 3 1 1 2 4 5 4 3 4 4 4 4 5 5 5 4 3 2 1 1 1 1 2 2 2 2 1 0 0 0 0 0 0 0 0 0 0
0 0 1 2 3 3 3 1 0 1 3 4 3 3 2 2 1 2 3 3 2 1 2 2 2 2 1 1 1 2 2 2 1 0 0 0 0 0 0 0 0 0 0
0 0 1 2 3 3 3 2 1 1 2 2 2 2 1 0 0 0 1 1 0 0 1 2 3 3 1 0 1 2 2 1 0 0 0 0 0 0 0 0 0 0 0
0 0 0 1 1 2 3 3 2 1 1 1 1 1 0 0 0 0 0 0 0 1 2 3 3 3 2 1 2 2 1 0 0 0 0 0 0 0 0 0 0 0 0
0 0 0 0 0 1 1 2 2 1 0 0 0 0 0 0 0 0 0 0 1 2 3 3 3 3 2 2 3 2 1 0 0 0 0 0 0 0 0 0 0 0 0
0 0 0 0 0 0 1 1 1 1 0 0 0 0 0 0 0 0 0 0 1 2 3 3 3 3 2 2 2 1 0 0 0 0 0 0 0 0 0 0 0 0 0
0 0 0 0 0 0 0 1 0 0 0 0 0 0 0 0 0 0 0 0 1 1 2 2 2 2 1 1 1 0 0 0 0 0 0 0 0 1 1 1 1 0 0
1 1 0 0 0 0 1 1 1 0 0 0 0 0 0 0 0 0 0 0 0 0 1 1 1 1 0 0 0 0 0 0 0 0 0 1 1 3 4 3 2 1 0
2 2 1 1 1 2 2 2 1 0 0 0 0 0 0 0 0 0 0 0 0 0 0 0 0 0 0 0 0 0 0 0 0 0 0 1 2 4 4 4 3 3 2
1 2 2 2 3 3 3 2 1 0 0 0 0 0 0 0 0 0 0 0 0 0 0 0 0 0 0 0 0 0 0 0 0 0 0 1 3 3 4 4 4 5 5
1 2 3 3 3 3 3 2 1 0 0 0 0 0 0 0 0 0 0 0 0 0 0 0 0 0 0 0 0 0 0 0 0 0 0 1 2 2 3 4 5 5 6
3 4 5 4 3 3 3 2 1 0 0 0 0 0 0 0 0 0 0 0 0 0 0 0 0 0 0 0 0 0 0 0 0 0 0 0 1 1 1 3 4 4 4
5 6 5 4 3 3 3 1 0 0 0 0 0 0 0 0 0 0 0 0 0 0 0 0 0 0 0 0 0 0 0 0 0 0 0 0 0 0 0 2 3 3 3
7 6 5 3 3 3 2 1 0 0 0 0 0 0 0 0 0 0 0 0 0 0 0 0 0 0 0 0 0 0 0 0 0 0 0 0 0 0 0 1 2 2 2
8 8 7 5 4 3 2 1 0 0 0 0 0 0 0 1 1 2 1 1 1 1 1 0 0 0 0 0 0 0 0 0 0 0 0 0 0 0 0 0 0 1 1
9 10 10 9 6 4 3 1 0 0 0 0 0 0 1 2 3 3 3 2 2 2 2 1 0 0 0 0 0 0 0 0 0 0 0 0 0 0 0 0 0 0 1
12 12 12 12 10 7 4 2 0 0 0 0 0 0 1 2 3 3 3 3 3 3 2 1 0 0 0 0 0 0 0 0 0 0 0 0 0 0 0 0 0 0 1
15 13 12 12 11 8 5 4 2 0 0 0 0 0 1 2 3 3 3 3 3 3 2 1 1 2 1 1 1 1 1 0 0 0 0 0 0 0 0 0 0 0 0
17 14 12 11 9 6 5 4 3 1 0 1 0 0 0 1 2 2 3 3 4 5 5 3 3 3 3 2 2 2 2 2 2 1 1 0 0 0 0 0 0 0 0
18 16 13 10 7 4 3 4 3 1 1 1 0 0 0 0 1 1 1 3 4 5 6 5 4 3 3 3 3 3 3 3 3 2 1 0 0 0 0 0 0 0 0
20 19 15 10 6 4 3 3 2 1 2 2 1 0 0 0 0 0 1 2 4 5 6 6 4 3 3 3 3 3 3 3 3 3 1 0 0 0 0 0 0 0 0

GEFSSE_con_probscp_246.txt.gz
Probability
0 1 2 3 4 5 4 2 2 1 0 0 0 1 2 3 3 1 0 0 0 1 2 2 2 3 3 3 3 2 1 2 3 5 5 3 1 0 0 0 0 0 0
0 1 2 3 4 4 3 2 2 2 1 1 1 1 3 3 3 2 0 0 0 1 2 2 2 3 3 3 3 3 3 3 4 5 5 2 0 0 0 0 0 0 0
0 0 1 2 2 2 2 2 1 1 1 2 2 2 2 2 2 1 0 0 0 1 1 2 2 3 3 3 3 4 5 5 4 4 4 2 0 0 0 0 0 0 0
0 0 0 1 1 1 2 2 1 1 1 2 3 1 1 1 1 0 0 0 0 0 1 2 3 3 3 3 3 4 6 6 4 3 2 1 0 0 0 0 0 0 0
0 0 0 1 0 1 2 3 2 1 1 2 2 1 1 2 1 0 0 0 0 0 1 2 3 3 3 3 3 4 6 6 4 2 1 0 0 0 0 0 0 0 0
0 0 0 0 0 1 2 2 2 1 0 1 1 1 2 2 2 1 0 0 0 0 1 2 2 3 3 3 3 3 5 5 3 1 0 0 0 0 0 0 0 0 0
0 0 0 0 0 0 1 1 1 0 0 0 0 1 2 2 2 2 1 0 0 0 0 1 1 1 2 2 1 2 3 3 1 0 0 0 0 0 0 0 0 0 0
0 0 0 0 0 0 0 0 0 0 0 0 0 0 2 3 3 3 2 1 0 1 1 0 0 1 1 1 0 1 2 2 1 0 0 0 0 0 0 0 0 0 0
0 0 0 0 0 0 0 0 0 0 0 0 0 1 2 3 3 3 2 1 2 3 3 1 1 1 0 0 0 0 1 1 0 0 0 0 0 0 0 0 0 0 0
0 0 0 0 0 0 0 0 0 0 0 1 1 1 2 2 2 2 2 2 3 4 3 2 1 0 0 0 0 0 0 0 0 0 0 0 0 0 0 0 0 0 0
0 0 0 0 0 0 0 0 0 0 0 1 1 1 1 1 0 1 2 3 3 3 2 1 0 0 0 0 0 0 0 0 0 0 0 0 0 0 0 0 0 0 0
0 0 0 0 0 0 0 0 0 0 0 1 1 0 0 0 0 1 2 2 2 2 1 0 0 0 0 0 0 0 0 0 0 0 0 0 0 0 0 0 0 0 0
0 0 0 0 0 0 0 0 0 0 0 0 0 0 0 0 0 0 1 1 1 1 0 0 0 0 0 0 0 0 0 0 0 0 0 0 0 1 1 1 1 0 0
0 0 0 0 0 0 0 0 0 0 0 0 0 0 0 0 0 0 0 0 0 0 0 0 0 0 0 0 0 0 0 0 0 0 0 0 1 2 2 2 2 1 0
0 0 0 0 0 0 0 0 0 0 0 0 0 0 0 0 0 0 0 0 0 0 0 0 0 0 0 0 0 0 0 0 0 0 0 0 1 3 3 3 2 1 0
0 0 1 1 1 1 1 0 0 0 0 0 0 0 0 0 0 0 0 0 0 0 0 0 0 0 0 0 0 0 0 0 0 0 0 0 2 3 3 3 3 1 0
0 1 2 2 2 2 2 1 0 0 0 0 0 0 0 0 0 0 0 0 0 0 0 0 0 0 0 0 0 0 0 0 0 0 0 0 1 2 2 2 2 1 1
1 2 3 3 3 3 2 1 0 0 0 0 0 0 0 0 0 0 0 0 0 0 0 0 0 0 0 0 0 0 0 0 0 0 0 0 0 1 1 1 1 1 1
3 3 3 3 3 3 1 0 0 0 0 0 0 0 0 0 0 0 0 0 0 0 0 0 0 0 0 0 0 0 0 0 0 0 0 0 0 0 0 0 0 1 1
4 3 3 3 3 2 1 0 0 0 0 0 0 0 0 0 0 0 0 0 0 0 0 0 0 0 0 0 0 0 0 0 0 0 0 0 0 0 0 0 0 0 0
5 4 3 3 3 2 1 0 0 0 0 0 0 0 0 0 0 0 0 0 0 0 0 0 0 0 0 0 0 0 0 0 0 0 0 0 0 0 0 0 0 0 0
5 4 3 3 3 1 0 0 0 0 0 0 0 0 0 0 0 0 0 1 1 0 0 0 0 0 0 0 0 0 0 0 1 1 0 0 0 0 0 0 0 0 0
5 4 3 4 3 1 0 0 0 0 0 0 0 0 0 0 0 0 0 1 1 0 0 0 0 0 0 0 0 0 0 1 2 2 1 0 0 0 0 0 0 0 0
5 4 4 4 2 1 0 0 0 0 0 0 0 0 0 0 0 0 0 1 1 0 0 0 0 0 0 0 0 0 1 1 2 2 1 0 0 0 0 0 0 0 0
5 4 3 3 1 1 1 1 0 0 0 0 0 0 0 0 0 0 0 0 0 0 0 0 0 0 0 0 1 1 2 2 2 1 0 0 0 0 0 0 0 0 0
7 5 3 1 1 2 2 2 1 0 0 0 0 0 0 0 0 0 0 0 0 0 0 0 0 0 0 1 2 2 2 2 1 0 0 0 0 0 0 0 0 0 0